| time (UTC) | temp F | wind direction | speed MPH | gust MPH | rain 1hr in | rain 24hr in | rain mn in | humidity % | barometer mb |
| 20260905104119 | 77 | 230 | 0.0 | 2.0 | 0.00 | 0.00 | 0.00 | 88 | 1011.5 |
| 20260905103614 | 77 | 189 | 0.0 | 2.0 | 0.00 | 0.00 | 0.00 | 88 | 1011.8 |
| 20260905103110 | 77 | 343 | 0.0 | 1.0 | 0.00 | 0.00 | 0.00 | 88 | 1011.8 |
| 20260905102605 | 77 | 233 | 0.0 | 2.0 | 0.00 | 0.00 | 0.00 | 88 | 1011.7 |
| 20260905102102 | 77 | 210 | 1.0 | 2.0 | 0.00 | 0.00 | 0.00 | 88 | 1011.5 |
| 20260905101600 | 77 | 225 | 0.0 | 2.0 | 0.00 | 0.00 | 0.00 | 88 | 1011.7 |
| 20260905101059 | 77 | 224 | 0.0 | 1.0 | 0.00 | 0.00 | 0.00 | 88 | 1011.4 |
| 20260905100555 | 77 | 217 | 0.0 | 2.0 | 0.00 | 0.00 | 0.00 | 88 | 1011.3 |
| 20260905100055 | 77 | 226 | 0.0 | 2.0 | 0.00 | 0.00 | 0.00 | 87 | 1011.7 |
| 20260905095543 | 78 | 201 | 0.0 | 2.0 | 0.00 | 0.00 | 0.00 | 87 | 1011.5 |
| 20260905095039 | 78 | 218 | 0.0 | 3.0 | 0.00 | 0.00 | 0.00 | 86 | 1011.8 |
| 20260905094534 | 78 | 246 | 2.0 | 4.0 | 0.00 | 0.00 | 0.00 | 86 | 1011.7 |
| 20260905094033 | 78 | 227 | 2.0 | 3.0 | 0.00 | 0.00 | 0.00 | 86 | 1011.4 |
| 20260905093527 | 78 | 249 | 4.0 | 5.0 | 0.00 | 0.00 | 0.00 | 86 | 1011.5 |
| 20260905093024 | 78 | 266 | 0.0 | 3.0 | 0.00 | 0.00 | 0.00 | 86 | 1011.8 |
| 20260905092524 | 78 | 253 | 1.0 | 3.0 | 0.00 | 0.00 | 0.00 | 86 | 1011.7 |
| 20260905092020 | 78 | 263 | 2.0 | 3.0 | 0.00 | 0.00 | 0.00 | 85 | 1011.5 |
| 20260905091519 | 79 | 273 | 1.0 | 2.0 | 0.00 | 0.00 | 0.00 | 85 | 1011.4 |
| 20260905091014 | 79 | 263 | 1.0 | 2.0 | 0.00 | 0.00 | 0.00 | 85 | 1011.7 |
| 20260905090513 | 79 | 314 | 1.0 | 2.0 | 0.00 | 0.00 | 0.00 | 84 | 1011.4 |
| 20260905090009 | 79 | 240 | 0.0 | 2.0 | 0.00 | 0.00 | 0.00 | 84 | 1011.7 |
| 20260905085507 | 79 | 218 | 1.0 | 3.0 | 0.00 | 0.00 | 0.00 | 84 | 1011.5 |
| 20260905085003 | 79 | 218 | 2.0 | 4.0 | 0.00 | 0.00 | 0.00 | 84 | 1011.7 |
| 20260905084502 | 79 | 205 | 0.0 | 3.0 | 0.00 | 0.00 | 0.00 | 84 | 1011.4 |
| 20260905083957 | 79 | 175 | 0.0 | 3.0 | 0.00 | 0.00 | 0.00 | 83 | 1011.7 |
| 20260905083453 | 79 | 180 | 2.0 | 4.0 | 0.00 | 0.00 | 0.00 | 83 | 1011.2 |
| 20260905082948 | 79 | 156 | 2.0 | 4.0 | 0.00 | 0.00 | 0.00 | 83 | 1011.2 |
| 20260905082444 | 80 | 199 | 1.0 | 4.0 | 0.00 | 0.00 | 0.00 | 83 | 1011.1 |
| 20260905081933 | 80 | 213 | 1.0 | 3.0 | 0.00 | 0.00 | 0.00 | 83 | 1011.2 |
| 20260905081428 | 80 | 260 | 1.0 | 3.0 | 0.00 | 0.00 | 0.00 | 83 | 1011.3 |
| 20260905080927 | 80 | 248 | 1.0 | 3.0 | 0.00 | 0.00 | 0.00 | 82 | 1011.1 |
| 20260905080422 | 80 | 246 | 0.0 | 4.0 | 0.00 | 0.00 | 0.00 | 82 | 1011.1 |
| 20260905075921 | 80 | 204 | 2.0 | 5.0 | 0.00 | 0.00 | 0.00 | 81 | 1011.3 |
| 20260905075416 | 80 | 238 | 1.0 | 4.0 | 0.00 | 0.00 | 0.00 | 81 | 1011.2 |
| 20260905074914 | 81 | 228 | 0.0 | 4.0 | 0.00 | 0.00 | 0.00 | 81 | 1011.1 |
| 20260905074410 | 81 | 208 | 2.0 | 5.0 | 0.00 | 0.00 | 0.00 | 80 | 1011.1 |
| 20260905073906 | 81 | 228 | 2.0 | 5.0 | 0.00 | 0.00 | 0.00 | 80 | 1011.2 |
| 20260905073401 | 81 | 239 | 2.0 | 4.0 | 0.00 | 0.00 | 0.00 | 80 | 1011.3 |
| 20260905072856 | 81 | 207 | 3.0 | 5.0 | 0.00 | 0.00 | 0.00 | 80 | 1011.2 |
| 20260905072350 | 81 | 210 | 1.0 | 5.0 | 0.00 | 0.00 | 0.00 | 80 | 1011.3 |
| 20260905071841 | 81 | 212 | 1.0 | 4.0 | 0.00 | 0.00 | 0.00 | 79 | 1011.4 |
| 20260905071337 | 81 | 150 | 3.0 | 5.0 | 0.00 | 0.00 | 0.00 | 79 | 1011.5 |
| 20260905070832 | 81 | 211 | 2.0 | 5.0 | 0.00 | 0.00 | 0.00 | 79 | 1011.4 |
| 20260905070328 | 81 | 174 | 2.0 | 4.0 | 0.00 | 0.00 | 0.00 | 79 | 1011.7 |
| 20260905065827 | 82 | 214 | 0.0 | 5.0 | 0.00 | 0.00 | 0.00 | 78 | 1011.9 |
| 20260905065325 | 82 | 169 | 4.0 | 5.0 | 0.00 | 0.00 | 0.00 | 78 | 1011.9 |
| 20260905064821 | 82 | 210 | 3.0 | 5.0 | 0.00 | 0.00 | 0.00 | 78 | 1011.7 |
| 20260905064317 | 82 | 181 | 1.0 | 5.0 | 0.00 | 0.00 | 0.00 | 77 | 1012.0 |
| 20260905063815 | 82 | 253 | 1.0 | 6.0 | 0.00 | 0.00 | 0.00 | 77 | 1011.9 |
| 20260905063311 | 82 | 222 | 2.0 | 5.0 | 0.00 | 0.00 | 0.00 | 77 | 1011.8 |
| 20260905062807 | 82 | 218 | 1.0 | 6.0 | 0.00 | 0.00 | 0.00 | 77 | 1012.1 |
| 20260905062305 | 82 | 212 | 4.0 | 5.0 | 0.00 | 0.00 | 0.00 | 76 | 1011.9 |
| 20260905061756 | 83 | 199 | 1.0 | 7.0 | 0.00 | 0.00 | 0.00 | 76 | 1012.0 |
| 20260905061250 | 83 | 205 | 3.0 | 4.0 | 0.00 | 0.00 | 0.00 | 76 | 1012.1 |
| 20260905060744 | 83 | 162 | 1.0 | 6.0 | 0.00 | 0.00 | 0.00 | 76 | 1012.0 |
| 20260905060242 | 83 | 181 | 3.0 | 4.0 | 0.00 | 0.00 | 0.00 | 76 | 1011.7 |
| 20260905055740 | 83 | 228 | 1.0 | 5.0 | 0.00 | 0.00 | 0.00 | 76 | 1011.9 |
| 20260905055235 | 83 | 198 | 2.0 | 4.0 | 0.00 | 0.00 | 0.00 | 76 | 1011.8 |
| 20260905054730 | 83 | 231 | 1.0 | 7.0 | 0.00 | 0.00 | 0.00 | 75 | 1011.7 |
| 20260905054226 | 83 | 206 | 0.0 | 5.0 | 0.00 | 0.00 | 0.00 | 75 | 1011.7 |
| 20260905053725 | 83 | 147 | 0.0 | 6.0 | 0.00 | 0.00 | 0.00 | 75 | 1011.5 |
| 20260905053221 | 83 | 163 | 3.0 | 5.0 | 0.00 | 0.00 | 0.00 | 75 | 1011.3 |
| 20260905052715 | 84 | 163 | 0.0 | 5.0 | 0.00 | 0.00 | 0.00 | 75 | 1011.5 |
| 20260905052210 | 84 | 181 | 1.0 | 5.0 | 0.00 | 0.00 | 0.00 | 74 | 1011.4 |
| 20260905051710 | 84 | 185 | 0.0 | 5.0 | 0.00 | 0.00 | 0.00 | 74 | 1011.7 |
| 20260905051206 | 84 | 192 | 1.0 | 5.0 | 0.00 | 0.00 | 0.00 | 74 | 1011.5 |
| 20260905050702 | 84 | 199 | 2.0 | 5.0 | 0.00 | 0.00 | 0.00 | 73 | 1011.4 |
| 20260905050159 | 84 | 185 | 2.0 | 6.0 | 0.00 | 0.00 | 0.00 | 73 | 1011.2 |
| 20260905045658 | 84 | 188 | 3.0 | 7.0 | 0.00 | 0.18 | 0.18 | 72 | 1011.7 |
| 20260905045154 | 84 | 201 | 3.0 | 4.0 | 0.00 | 0.18 | 0.18 | 72 | 1011.5 |
| 20260905044649 | 85 | 180 | 3.0 | 7.0 | 0.00 | 0.18 | 0.18 | 71 | 1011.5 |
| 20260905044143 | 85 | 163 | 2.0 | 5.0 | 0.00 | 0.18 | 0.18 | 71 | 1011.8 |
| 20260905043642 | 85 | 182 | 6.0 | 7.0 | 0.00 | 0.18 | 0.18 | 70 | 1011.7 |
| 20260905043138 | 85 | 183 | 2.0 | 9.0 | 0.00 | 0.18 | 0.18 | 70 | 1011.3 |
| 20260905042637 | 86 | 182 | 3.0 | 10.0 | 0.00 | 0.18 | 0.18 | 69 | 1011.4 |
| 20260905042131 | 86 | 176 | 0.0 | 7.0 | 0.00 | 0.18 | 0.18 | 69 | 1011.4 |
| 20260905041627 | 86 | 162 | 4.0 | 8.0 | 0.00 | 0.18 | 0.18 | 68 | 1011.3 |
| 20260905041122 | 86 | 176 | 5.0 | 9.0 | 0.00 | 0.18 | 0.18 | 67 | 1011.5 |
| 20260905040617 | 86 | 169 | 5.0 | 8.0 | 0.00 | 0.18 | 0.18 | 67 | 1011.5 |
| 20260905040116 | 86 | 211 | 1.0 | 7.0 | 0.00 | 0.18 | 0.18 | 67 | 1011.5 |
| 20260905035611 | 87 | 142 | 2.0 | 9.0 | 0.00 | 0.18 | 0.18 | 66 | 1011.5 |
| 20260905035107 | 87 | 199 | 2.0 | 8.0 | 0.00 | 0.18 | 0.18 | 65 | 1011.4 |
| 20260905034603 | 87 | 196 | 3.0 | 5.0 | 0.00 | 0.18 | 0.18 | 65 | 1011.5 |
| 20260905034056 | 87 | 168 | 3.0 | 7.0 | 0.00 | 0.18 | 0.18 | 64 | 1011.7 |
| 20260905033550 | 87 | 209 | 2.0 | 8.0 | 0.00 | 0.18 | 0.18 | 63 | 1011.5 |
| 20260905033046 | 87 | 163 | 2.0 | 10.0 | 0.00 | 0.18 | 0.18 | 63 | 1011.7 |
| 20260905032541 | 88 | 155 | 4.0 | 8.0 | 0.00 | 0.18 | 0.18 | 62 | 1011.5 |
| 20260905032036 | 88 | 201 | 6.0 | 10.0 | 0.00 | 0.18 | 0.18 | 61 | 1011.7 |
| 20260905031532 | 88 | 168 | 5.0 | 11.0 | 0.00 | 0.18 | 0.18 | 61 | 1011.5 |
| 20260905031032 | 88 | 150 | 3.0 | 10.0 | 0.00 | 0.18 | 0.18 | 60 | 1011.7 |
| 20260905030526 | 89 | 175 | 4.0 | 11.0 | 0.00 | 0.18 | 0.18 | 60 | 1011.3 |
| 20260905030021 | 89 | 156 | 3.0 | 9.0 | 0.00 | 0.18 | 0.18 | 60 | 1011.4 |
| 20260905025516 | 89 | 145 | 3.0 | 11.0 | 0.00 | 0.18 | 0.18 | 59 | 1011.5 |
| 20260905025013 | 89 | 170 | 6.0 | 7.0 | 0.00 | 0.18 | 0.18 | 59 | 1011.2 |
| 20260905024507 | 89 | 198 | 6.0 | 11.0 | 0.00 | 0.18 | 0.18 | 58 | 1011.4 |
| 20260905024002 | 89 | 175 | 5.0 | 9.0 | 0.00 | 0.18 | 0.18 | 58 | 1011.3 |
| 20260905023458 | 89 | 176 | 3.0 | 11.0 | 0.00 | 0.18 | 0.18 | 57 | 1011.3 |
| 20260905022956 | 89 | 172 | 5.0 | 9.0 | 0.00 | 0.18 | 0.18 | 57 | 1011.0 |
| 20260905022452 | 90 | 145 | 5.0 | 7.0 | 0.00 | 0.18 | 0.18 | 56 | 1011.0 |
| 20260905021947 | 90 | 180 | 3.0 | 13.0 | 0.00 | 0.18 | 0.18 | 55 | 1011.1 |
| 20260905021446 | 90 | 140 | 5.0 | 8.0 | 0.00 | 0.18 | 0.18 | 55 | 1011.0 |
| 20260905020942 | 90 | 158 | 4.0 | 5.0 | 0.00 | 0.18 | 0.18 | 55 | 1010.6 |
| 20260905020441 | 90 | 148 | 2.0 | 4.0 | 0.00 | 0.18 | 0.18 | 55 | 1010.3 |
| 20260905015936 | 90 | 156 | 2.0 | 4.0 | 0.00 | 0.18 | 0.18 | 55 | 1010.5 |
| 20260905015434 | 90 | 164 | 3.0 | 7.0 | 0.00 | 0.18 | 0.18 | 54 | 1010.6 |
| 20260905014933 | 91 | 151 | 5.0 | 7.0 | 0.00 | 0.18 | 0.18 | 54 | 1010.4 |
| 20260905014429 | 91 | 184 | 3.0 | 5.0 | 0.00 | 0.18 | 0.18 | 54 | 1010.4 |
| 20260905013924 | 91 | 168 | 2.0 | 7.0 | 0.00 | 0.18 | 0.18 | 53 | 1010.2 |
| 20260905013421 | 91 | 169 | 1.0 | 6.0 | 0.00 | 0.18 | 0.18 | 53 | 1009.9 |
| 20260905012916 | 91 | 138 | 1.0 | 5.0 | 0.00 | 0.18 | 0.18 | 53 | 1010.1 |
| 20260905012411 | 92 | 160 | 3.0 | 8.0 | 0.00 | 0.18 | 0.18 | 52 | 1009.9 |
| 20260905011908 | 92 | 165 | 2.0 | 7.0 | 0.00 | 0.18 | 0.18 | 51 | 1010.0 |
| 20260905011403 | 92 | 181 | 3.0 | 7.0 | 0.00 | 0.18 | 0.18 | 51 | 1010.0 |
| 20260905010858 | 93 | 152 | 4.0 | 7.0 | 0.00 | 0.18 | 0.18 | 51 | 1009.8 |
| 20260905010353 | 93 | 174 | 3.0 | 9.0 | 0.00 | 0.18 | 0.18 | 51 | 1009.8 |
| 20260905005849 | 93 | 176 | 3.0 | 9.0 | 0.00 | 0.18 | 0.18 | 50 | 1010.0 |
| 20260905005345 | 93 | 160 | 5.0 | 7.0 | 0.00 | 0.18 | 0.18 | 50 | 1009.9 |
| 20260905004840 | 94 | 155 | 4.0 | 7.0 | 0.00 | 0.18 | 0.18 | 50 | 1009.8 |
| 20260905004334 | 94 | 162 | 5.0 | 11.0 | 0.00 | 0.18 | 0.18 | 49 | 1009.5 |
| 20260905003830 | 94 | 109 | 3.0 | 7.0 | 0.00 | 0.18 | 0.18 | 49 | 1009.6 |
| 20260905003326 | 95 | 165 | 5.0 | 7.0 | 0.00 | 0.18 | 0.18 | 48 | 1009.6 |
| 20260905002821 | 95 | 175 | 5.0 | 7.0 | 0.00 | 0.18 | 0.18 | 47 | 1009.6 |
| 20260905002315 | 95 | 168 | 4.0 | 11.0 | 0.00 | 0.18 | 0.18 | 46 | 1009.5 |
| 20260905001810 | 96 | 159 | 4.0 | 7.0 | 0.00 | 0.18 | 0.18 | 46 | 1009.4 |
| 20260905001309 | 96 | 170 | 4.0 | 9.0 | 0.00 | 0.18 | 0.18 | 46 | 1009.3 |
| 20260905000805 | 96 | 161 | 4.0 | 9.0 | 0.00 | 0.18 | 0.18 | 46 | 1009.1 |
| 20260905000303 | 96 | 157 | 5.0 | 10.0 | 0.00 | 0.18 | 0.18 | 45 | 1009.2 |
| 20260904235756 | 96 | 142 | 3.0 | 12.0 | 0.00 | 0.18 | 0.18 | 45 | 1009.3 |
| 20260904235250 | 97 | 156 | 6.0 | 16.0 | 0.00 | 0.18 | 0.18 | 45 | 1009.2 |
| 20260904234745 | 97 | 168 | 9.0 | 14.0 | 0.00 | 0.18 | 0.18 | 45 | 1009.3 |
| 20260904234240 | 96 | 121 | 5.0 | 11.0 | 0.00 | 0.18 | 0.18 | 45 | 1009.1 |
| 20260904233736 | 96 | 143 | 6.0 | 15.0 | 0.00 | 0.18 | 0.18 | 45 | 1008.9 |
| 20260904233232 | 97 | 154 | 11.0 | 14.0 | 0.00 | 0.18 | 0.18 | 45 | 1009.3 |
| 20260904232729 | 97 | 189 | 4.0 | 6.0 | 0.00 | 0.18 | 0.18 | 43 | 1009.2 |
| 20260904232225 | 97 | 213 | 2.0 | 6.0 | 0.00 | 0.18 | 0.18 | 43 | 1009.1 |
| 20260904231720 | 98 | 219 | 2.0 | 10.0 | 0.00 | 0.18 | 0.18 | 43 | 1009.1 |
| 20260904231215 | 97 | 204 | 7.0 | 8.0 | 0.00 | 0.18 | 0.18 | 44 | 1009.1 |
| 20260904230715 | 96 | 189 | 5.0 | 12.0 | 0.00 | 0.18 | 0.18 | 44 | 1009.0 |
| 20260904230209 | 96 | 148 | 3.0 | 9.0 | 0.00 | 0.18 | 0.18 | 44 | 1009.1 |
| 20260904225708 | 96 | 164 | 4.0 | 9.0 | 0.00 | 0.18 | 0.18 | 45 | 1008.9 |
| 20260904225202 | 96 | 177 | 5.0 | 10.0 | 0.00 | 0.18 | 0.18 | 45 | 1008.9 |
| 20260904224656 | 96 | 191 | 4.0 | 10.0 | 0.00 | 0.18 | 0.18 | 45 | 1009.0 |
| 20260904224151 | 97 | 190 | 5.0 | 10.0 | 0.00 | 0.18 | 0.18 | 44 | 1009.1 |
| 20260904223650 | 98 | 161 | 9.0 | 14.0 | 0.00 | 0.18 | 0.18 | 43 | 1009.1 |
| 20260904223146 | 99 | 187 | 5.0 | 7.0 | 0.00 | 0.18 | 0.18 | 43 | 1009.2 |
| 20260904222642 | 98 | 184 | 7.0 | 7.0 | 0.00 | 0.18 | 0.18 | 44 | 1009.3 |
| 20260904222137 | 97 | 133 | 4.0 | 7.0 | 0.00 | 0.18 | 0.18 | 44 | 1009.2 |
| 20260904221636 | 99 | 166 | 7.0 | 13.0 | 0.00 | 0.18 | 0.18 | 42 | 1009.2 |
| 20260904221131 | 99 | 178 | 7.0 | 16.0 | 0.00 | 0.18 | 0.18 | 43 | 1009.1 |
| 20260904220626 | 99 | 202 | 3.0 | 8.0 | 0.00 | 0.18 | 0.18 | 42 | 1009.3 |
| 20260904220121 | 99 | 187 | 7.0 | 12.0 | 0.00 | 0.18 | 0.18 | 44 | 1009.2 |
| 20260904215616 | 99 | 185 | 2.0 | 11.0 | 0.00 | 0.18 | 0.18 | 43 | 1009.3 |
| 20260904215112 | 99 | 172 | 5.0 | 14.0 | 0.00 | 0.18 | 0.18 | 43 | 1009.3 |
| 20260904214607 | 98 | 188 | 3.0 | 16.0 | 0.00 | 0.18 | 0.18 | 44 | 1009.4 |
| 20260904214103 | 98 | 154 | 4.0 | 11.0 | 0.00 | 0.18 | 0.18 | 44 | 1009.5 |
| 20260904213600 | 100 | 206 | 7.0 | 10.0 | 0.00 | 0.18 | 0.18 | 40 | 1009.4 |
| 20260904213057 | 100 | 180 | 4.0 | 13.0 | 0.00 | 0.18 | 0.18 | 39 | 1009.4 |
| 20260904212556 | 100 | 246 | 0.0 | 5.0 | 0.00 | 0.18 | 0.18 | 39 | 1009.4 |
| 20260904212052 | 100 | 143 | 5.0 | 13.0 | 0.00 | 0.18 | 0.18 | 39 | 1009.4 |
| 20260904211551 | 100 | 179 | 4.0 | 13.0 | 0.00 | 0.18 | 0.18 | 39 | 1009.6 |
| 20260904211047 | 100 | 161 | 5.0 | 10.0 | 0.00 | 0.18 | 0.18 | 40 | 1009.7 |
| 20260904210546 | 100 | 181 | 4.0 | 11.0 | 0.00 | 0.18 | 0.18 | 41 | 1009.7 |
| 20260904210042 | 100 | 161 | 6.0 | 13.0 | 0.00 | 0.18 | 0.18 | 40 | 1009.7 |
| 20260904205536 | 99 | 178 | 8.0 | 12.0 | 0.00 | 0.18 | 0.18 | 41 | 1010.0 |
| 20260904205033 | 98 | 208 | 5.0 | 13.0 | 0.00 | 0.18 | 0.18 | 42 | 1010.0 |
| 20260904204529 | 99 | 145 | 4.0 | 15.0 | 0.00 | 0.18 | 0.18 | 41 | 1010.0 |
| 20260904204025 | 99 | 199 | 4.0 | 11.0 | 0.00 | 0.18 | 0.18 | 42 | 1010.0 |
| 20260904203521 | 99 | 145 | 10.0 | 10.0 | 0.00 | 0.18 | 0.18 | 41 | 1010.3 |
| 20260904203017 | 98 | 133 | 2.0 | 10.0 | 0.00 | 0.18 | 0.18 | 42 | 1010.1 |
| 20260904202513 | 100 | 178 | 4.0 | 17.0 | 0.00 | 0.18 | 0.18 | 42 | 1010.2 |
| 20260904202009 | 98 | 144 | 4.0 | 11.0 | 0.00 | 0.18 | 0.18 | 43 | 1010.3 |
| 20260904201503 | 98 | 160 | 3.0 | 8.0 | 0.00 | 0.18 | 0.18 | 43 | 1010.2 |
| 20260904200959 | 99 | 184 | 5.0 | 13.0 | 0.00 | 0.18 | 0.18 | 42 | 1010.4 |
| 20260904200457 | 99 | 179 | 5.0 | 7.0 | 0.00 | 0.18 | 0.18 | 42 | 1010.3 |
| 20260904195952 | 99 | 213 | 5.0 | 9.0 | 0.00 | 0.18 | 0.18 | 43 | 1010.5 |
| 20260904195450 | 97 | 166 | 3.0 | 7.0 | 0.00 | 0.18 | 0.18 | 46 | 1010.6 |
| 20260904194949 | 96 | 177 | 3.0 | 10.0 | 0.00 | 0.18 | 0.18 | 47 | 1010.8 |
| 20260904194445 | 96 | 209 | 3.0 | 8.0 | 0.00 | 0.18 | 0.18 | 48 | 1010.8 |
| 20260904193940 | 96 | 177 | 4.0 | 14.0 | 0.00 | 0.18 | 0.18 | 48 | 1010.9 |
| 20260904193435 | 98 | 207 | 6.0 | 14.0 | 0.00 | 0.18 | 0.18 | 46 | 1011.0 |
| 20260904192931 | 98 | 266 | 1.0 | 3.0 | 0.00 | 0.18 | 0.18 | 47 | 1011.0 |
| 20260904192425 | 96 | 180 | 5.0 | 10.0 | 0.00 | 0.18 | 0.18 | 49 | 1011.2 |
| 20260904191922 | 95 | 184 | 3.0 | 10.0 | 0.00 | 0.18 | 0.18 | 50 | 1011.2 |
| 20260904191419 | 96 | 237 | 3.0 | 7.0 | 0.00 | 0.18 | 0.18 | 49 | 1011.4 |
| 20260904190915 | 95 | 164 | 2.0 | 8.0 | 0.00 | 0.18 | 0.18 | 51 | 1011.1 |
| 20260904190410 | 96 | 167 | 5.0 | 15.0 | 0.00 | 0.18 | 0.18 | 49 | 1011.3 |
| 20260904185907 | 95 | 209 | 6.0 | 9.0 | 0.00 | 0.18 | 0.18 | 51 | 1011.5 |
| 20260904185402 | 95 | 187 | 9.0 | 10.0 | 0.00 | 0.18 | 0.18 | 50 | 1011.7 |
| 20260904184901 | 96 | 225 | 5.0 | 7.0 | 0.00 | 0.18 | 0.18 | 51 | 1011.5 |
| 20260904184356 | 95 | 234 | 2.0 | 13.0 | 0.00 | 0.18 | 0.18 | 50 | 1011.4 |
| 20260904183852 | 94 | 207 | 4.0 | 8.0 | 0.00 | 0.18 | 0.18 | 52 | 1011.8 |
| 20260904183346 | 95 | 240 | 1.0 | 6.0 | 0.00 | 0.18 | 0.18 | 55 | 1012.0 |
| 20260904182842 | 95 | 198 | 3.0 | 8.0 | 0.00 | 0.18 | 0.18 | 55 | 1012.1 |
| 20260904182337 | 95 | 198 | 3.0 | 8.0 | 0.00 | 0.18 | 0.18 | 55 | 1012.1 |
| 20260904181833 | 94 | 194 | 3.0 | 7.0 | 0.00 | 0.18 | 0.18 | 55 | 1011.9 |
| 20260904181332 | 94 | 209 | 4.0 | 7.0 | 0.00 | 0.18 | 0.18 | 56 | 1012.3 |
| 20260904180828 | 94 | 221 | 5.0 | 11.0 | 0.00 | 0.18 | 0.18 | 54 | 1012.3 |
| 20260904180323 | 94 | 139 | 2.0 | 9.0 | 0.00 | 0.18 | 0.18 | 56 | 1012.4 |
| 20260904175822 | 95 | 211 | 3.0 | 7.0 | 0.00 | 0.18 | 0.18 | 49 | 1012.5 |
| 20260904175320 | 95 | 211 | 3.0 | 7.0 | 0.00 | 0.18 | 0.18 | 49 | 1012.5 |
| 20260904174815 | 95 | 211 | 3.0 | 7.0 | 0.00 | 0.18 | 0.18 | 49 | 1012.5 |
| 20260904174311 | 94 | 153 | 5.0 | 9.0 | 0.00 | 0.18 | 0.18 | 53 | 1012.4 |
| 20260904173807 | 94 | 205 | 5.0 | 12.0 | 0.00 | 0.18 | 0.18 | 48 | 1012.6 |
| 20260904173302 | 92 | 227 | 8.0 | 11.0 | 0.00 | 0.18 | 0.18 | 51 | 1012.7 |
| 20260904172758 | 93 | 211 | 5.0 | 15.0 | 0.00 | 0.18 | 0.18 | 50 | 1012.7 |
| 20260904172257 | 92 | 179 | 6.0 | 15.0 | 0.00 | 0.18 | 0.18 | 50 | 1012.8 |
| 20260904171752 | 92 | 225 | 4.0 | 15.0 | 0.00 | 0.18 | 0.18 | 52 | 1012.7 |
| 20260904171248 | 92 | 201 | 5.0 | 13.0 | 0.00 | 0.18 | 0.18 | 53 | 1012.9 |
| 20260904170744 | 92 | 160 | 4.0 | 9.0 | 0.00 | 0.18 | 0.18 | 53 | 1012.9 |
| 20260904170239 | 93 | 218 | 5.0 | 9.0 | 0.00 | 0.18 | 0.18 | 55 | 1012.9 |
| 20260904165738 | 91 | 235 | 5.0 | 11.0 | 0.00 | 0.18 | 0.18 | 57 | 1013.1 |
| 20260904165232 | 92 | 197 | 4.0 | 7.0 | 0.00 | 0.18 | 0.18 | 57 | 1012.9 |
| 20260904164727 | 92 | 227 | 5.0 | 14.0 | 0.00 | 0.18 | 0.18 | 60 | 1012.9 |
| 20260904164222 | 91 | 254 | 5.0 | 9.0 | 0.00 | 0.18 | 0.18 | 62 | 1013.0 |
| 20260904163718 | 91 | 205 | 3.0 | 5.0 | 0.00 | 0.18 | 0.18 | 61 | 1012.9 |
| 20260904163213 | 90 | 162 | 12.0 | 13.0 | 0.00 | 0.18 | 0.18 | 62 | 1013.0 |
| 20260904162712 | 90 | 172 | 5.0 | 12.0 | 0.00 | 0.18 | 0.18 | 64 | 1013.0 |
| 20260904162207 | 89 | 233 | 4.0 | 12.0 | 0.00 | 0.18 | 0.18 | 66 | 1013.0 |
| 20260904161703 | 89 | 229 | 4.0 | 9.0 | 0.00 | 0.18 | 0.18 | 68 | 1013.3 |
| 20260904161158 | 89 | 190 | 2.0 | 11.0 | 0.00 | 0.18 | 0.18 | 68 | 1013.2 |
| 20260904160654 | 88 | 185 | 5.0 | 12.0 | 0.00 | 0.18 | 0.18 | 71 | 1013.0 |
| 20260904160149 | 88 | 188 | 4.0 | 11.0 | 0.00 | 0.18 | 0.18 | 71 | 1013.0 |
| 20260904155644 | 88 | 217 | 4.0 | 10.0 | 0.00 | 0.18 | 0.18 | 69 | 1013.0 |
| 20260904155143 | 88 | 207 | 11.0 | 11.0 | 0.00 | 0.18 | 0.18 | 69 | 1013.0 |
| 20260904154642 | 87 | 223 | 6.0 | 7.0 | 0.00 | 0.18 | 0.18 | 71 | 1012.9 |
| 20260904154136 | 88 | 195 | 5.0 | 12.0 | 0.00 | 0.18 | 0.18 | 70 | 1013.0 |
| 20260904153632 | 88 | 170 | 5.0 | 9.0 | 0.00 | 0.18 | 0.18 | 70 | 1012.9 |
| 20260904153127 | 87 | 220 | 5.0 | 14.0 | 0.00 | 0.18 | 0.18 | 71 | 1012.9 |
| 20260904152623 | 86 | 204 | 5.0 | 11.0 | 0.00 | 0.18 | 0.18 | 76 | 1013.0 |
| 20260904152119 | 86 | 217 | 3.0 | 10.0 | 0.00 | 0.18 | 0.18 | 78 | 1013.1 |
| 20260904151613 | 86 | 216 | 10.0 | 12.0 | 0.00 | 0.18 | 0.18 | 76 | 1012.6 |
| 20260904151112 | 86 | 209 | 11.0 | 13.0 | 0.00 | 0.18 | 0.18 | 80 | 1012.9 |
| 20260904150608 | 86 | 207 | 6.0 | 10.0 | 0.00 | 0.18 | 0.18 | 81 | 1012.7 |
| 20260904145601 | 84 | 190 | 5.0 | 12.0 | 0.00 | 0.18 | 0.18 | 84 | 1012.8 |
| 20260904145056 | 85 | 217 | 2.0 | 8.0 | 0.00 | 0.18 | 0.18 | 84 | 1012.7 |
| 20260904144552 | 84 | 191 | 6.0 | 9.0 | 0.00 | 0.18 | 0.18 | 85 | 1013.1 |
| 20260904144048 | 85 | 228 | 2.0 | 8.0 | 0.00 | 0.18 | 0.18 | 85 | 1012.9 |
| 20260904143544 | 84 | 207 | 3.0 | 9.0 | 0.00 | 0.18 | 0.18 | 87 | 1013.0 |
| 20260904143040 | 82 | 182 | 6.0 | 14.0 | 0.00 | 0.18 | 0.18 | 89 | 1012.8 |
| 20260904142536 | 82 | 201 | 2.0 | 7.0 | 0.00 | 0.18 | 0.18 | 91 | 1013.0 |
| 20260904142032 | 82 | 161 | 2.0 | 5.0 | 0.00 | 0.18 | 0.18 | 91 | 1012.8 |
| 20260904141526 | 82 | 154 | 3.0 | 6.0 | 0.00 | 0.18 | 0.18 | 91 | 1012.9 |
| 20260904141022 | 81 | 188 | 1.0 | 5.0 | 0.00 | 0.18 | 0.18 | 92 | 1012.8 |
| 20260904140516 | 81 | 186 | 2.0 | 4.0 | 0.00 | 0.18 | 0.18 | 92 | 1012.7 |
| 20260904140016 | 81 | 220 | 1.0 | 6.0 | 0.00 | 0.18 | 0.18 | 93 | 1012.7 |
| 20260904135510 | 80 | 101 | 0.0 | 4.0 | 0.00 | 0.18 | 0.18 | 93 | 1012.7 |
| 20260904135006 | 80 | 159 | 3.0 | 8.0 | 0.00 | 0.18 | 0.18 | 93 | 1012.5 |
| 20260904134501 | 80 | 175 | 4.0 | 8.0 | 0.00 | 0.18 | 0.18 | 93 | 1012.8 |
| 20260904133955 | 80 | 131 | 3.0 | 6.0 | 0.00 | 0.18 | 0.18 | 93 | 1012.4 |
| 20260904133450 | 80 | 179 | 0.0 | 4.0 | 0.00 | 0.18 | 0.18 | 93 | 1012.8 |
| 20260904132946 | 80 | 158 | 3.0 | 4.0 | 0.00 | 0.18 | 0.18 | 93 | 1012.6 |
| 20260904132441 | 80 | 149 | 6.0 | 6.0 | 0.00 | 0.18 | 0.18 | 94 | 1012.5 |
| 20260904131940 | 80 | 145 | 1.0 | 3.0 | 0.00 | 0.18 | 0.18 | 94 | 1012.3 |
| 20260904131435 | 79 | 135 | 0.0 | 5.0 | 0.00 | 0.18 | 0.18 | 94 | 1012.3 |
| 20260904130931 | 79 | 170 | 2.0 | 5.0 | 0.00 | 0.18 | 0.18 | 95 | 1012.3 |
| 20260904130430 | 79 | 120 | 1.0 | 8.0 | 0.00 | 0.18 | 0.18 | 95 | 1012.1 |
| 20260904125924 | 79 | 158 | 3.0 | 7.0 | 0.00 | 0.18 | 0.18 | 95 | 1012.0 |
| 20260904125421 | 79 | 174 | 0.0 | 5.0 | 0.00 | 0.18 | 0.18 | 95 | 1012.1 |
| 20260904124920 | 79 | 178 | 1.0 | 4.0 | 0.00 | 0.18 | 0.18 | 95 | 1012.1 |
| 20260904124417 | 79 | 183 | 1.0 | 4.0 | 0.00 | 0.18 | 0.18 | 95 | 1012.2 |
| 20260904123913 | 79 | 154 | 0.0 | 3.0 | 0.00 | 0.18 | 0.18 | 95 | 1011.7 |
| 20260904123413 | 79 | 166 | 0.0 | 3.0 | 0.00 | 0.18 | 0.18 | 95 | 1012.2 |
| 20260904122908 | 79 | 147 | 1.0 | 4.0 | 0.00 | 0.18 | 0.18 | 95 | 1011.9 |
| 20260904122407 | 79 | 156 | 2.0 | 3.0 | 0.00 | 0.18 | 0.18 | 95 | 1011.9 |
| 20260904121902 | 79 | 168 | 3.0 | 4.0 | 0.00 | 0.18 | 0.18 | 95 | 1011.8 |
| 20260904121359 | 79 | 142 | 2.0 | 5.0 | 0.00 | 0.18 | 0.18 | 95 | 1011.9 |
| 20260904120855 | 79 | 109 | 2.0 | 5.0 | 0.00 | 0.18 | 0.18 | 95 | 1011.8 |
| 20260904120351 | 79 | 146 | 1.0 | 4.0 | 0.00 | 0.18 | 0.18 | 95 | 1011.2 |
| 20260904115846 | 79 | 159 | 0.0 | 7.0 | 0.00 | 0.18 | 0.18 | 95 | 1011.3 |
| 20260904115341 | 79 | 212 | 2.0 | 6.0 | 0.00 | 0.18 | 0.18 | 95 | 1011.3 |
| 20260904114835 | 79 | 143 | 3.0 | 7.0 | 0.00 | 0.18 | 0.18 | 95 | 1011.5 |
| 20260904114330 | 79 | 184 | 1.0 | 5.0 | 0.00 | 0.18 | 0.18 | 95 | 1011.4 |
| 20260904113825 | 79 | 162 | 1.0 | 5.0 | 0.00 | 0.18 | 0.18 | 95 | 1011.2 |
| 20260904113325 | 79 | 169 | 0.0 | 5.0 | 0.00 | 0.18 | 0.18 | 95 | 1011.3 |
| 20260904112819 | 78 | 162 | 3.0 | 6.0 | 0.00 | 0.18 | 0.18 | 95 | 1011.4 |
| 20260904112315 | 78 | 158 | 2.0 | 5.0 | 0.00 | 0.18 | 0.18 | 95 | 1011.2 |
| 20260904111810 | 78 | 159 | 0.0 | 5.0 | 0.00 | 0.18 | 0.18 | 95 | 1011.0 |
| 20260904111306 | 78 | 147 | 0.0 | 4.0 | 0.00 | 0.18 | 0.18 | 95 | 1011.0 |
| 20260904110802 | 78 | 289 | 0.0 | 4.0 | 0.00 | 0.18 | 0.18 | 95 | 1011.2 |
| 20260904110300 | 78 | 173 | 1.0 | 4.0 | 0.00 | 0.18 | 0.18 | 95 | 1011.2 |
| 20260904105756 | 78 | 180 | 3.0 | 5.0 | 0.00 | 0.18 | 0.18 | 95 | 1011.1 |
| 20260904105250 | 78 | 184 | 0.0 | 4.0 | 0.00 | 0.18 | 0.18 | 95 | 1011.1 |
| 20260904104746 | 78 | 222 | 0.0 | 3.0 | 0.00 | 0.18 | 0.18 | 95 | 1011.2 |
| 20260904104241 | 78 | 316 | 0.0 | 5.0 | 0.00 | 0.18 | 0.18 | 95 | 1011.0 |